Regional Weather Roundup
Issued by NWS Midland/Odessa, TX

Skip options and go directly to product.
Home | Oldest Version | Previous Version | Current Version | All | Text Only | Save Text | Print | Product List | Glossary On

Skip product version selection by date and time.   
638
ASUS44 KMAF 051110
RWRMAF
MIDLAND AREA WEATHER ROUNDUP
NATIONAL WEATHER SERVICE MIDLAND TX
500 AM CST THU MAR 05 2015

...IN SOUTHWEST TEXAS AND SOUTHEAST NEW MEXICO...

CITY           SKY/WX    TMP DP  RH WIND       PRES   REMARKS
ALPINE         CLOUDY    22  21  95 NE12      30.43S WCI  11
ANDREWS        CLOUDY    24  16  69 NE9       30.47R WCI  15
ARTESIA        CLOUDY    25  25 100 CALM      30.48R
BIG SPRING     CLOUDY    26  18  71 N10       30.51R WCI  16
CARLSBAD       CLOUDY    28  21  75 N6        30.47S WCI  22
DRYDEN           N/A     31  23  72 N12G24    30.44R WCI  22
FORT STOCKTON  CLOUDY    24  24 100 N5        30.48R FOG     WCI  18
GUAD PASS      NOT AVBL
HOBBS          CLOUDY    25  18  74 N10       30.45S WCI  15
MARFA          CLOUDY    21  19  93 N21       30.33R WCI   6
MIDLAND AIRPK  MOCLDY    26  19  75 N7        30.48R WCI  19
MIDLAND INTL   CLOUDY    25  18  74 N13       30.46S WCI  14
ODESSA         CLOUDY    25  18  74 N12       30.47R WCI  14
PECOS          CLOUDY    28  26  91 N7        30.51S WCI  21
PRESIDIO       CLOUDY    36  25  64 N22G28    30.33R WCI  24
SEMINOLE       CLOUDY    25  15  67 N7        30.47R WCI  17
SNYDER         PTCLDY    23  17  78 NW9       30.48R WCI  13
WINK           CLOUDY    29  19  66 NE10      30.48R WCI  20
$$
...OTHER STATIONS IN TEXAS...

CITY           SKY/WX    TMP DP  RH WIND       PRES   REMARKS
ABILENE        CLEAR     21  18  88 N8        30.49R WCI  11
AMARILLO       CLEAR     16  13  88 W7        30.42S WCI   6
AUSTIN         FRZ RAIN  32  29  88 N20G30    30.34R WCI  20
BROWNSVILLE    LGT RAIN  45  43  93 N20G33    30.11R WCI  37
CORPUS CHRISTI CLOUDY    41  36  82 N23G35    30.21R WCI  31
DALLAS FTW     MOCLDY    25  19  78 N16       30.45R WCI  12
DEL RIO        CLOUDY    35  26  69 NW16G24   30.43R WCI  25
EL PASO        CLOUDY    34  22  61 E13       30.31S WCI  25
HOUSTON INT    CLOUDY    41  37  86 N23G33    30.19R WCI  31
LUBBOCK        CLOUDY    24  18  77 NW8       30.45R WCI  15
SAN ANGELO     CLOUDY    27  21  78 N16       30.47R WCI  15
SAN ANTONIO    CLOUDY    34  28  79 N18G33    30.29R WCI  23
WACO           CLOUDY    28  25  88 N20       30.40R WCI  15
WICHITA FALLS  NOT AVBL
$$
...OTHER LOCATIONS IN NEW MEXICO...

CITY           SKY/WX    TMP DP  RH WIND       PRES   REMARKS
ALAMAGORDO     CLEAR     28  25  86 S12       30.34R WCI  18
ALBUQUERQUE    CLEAR     25  18  74 N5        30.33S WCI  19
CANNON AFB     CLOUDY    22  16  78 W2        30.40S
CLOVIS         MOCLDY    18  14  86 N5        30.40S WCI  11
HOLLOMAN AFB   CLEAR     29  23  78 SE10      30.32R WCI  20
ROSWELL        CLOUDY    26  21  81 N3        30.45R
RUIDOSO        FOG       14  12  92 CALM      30.30S VSB 1/2
SANTA FE       CLEAR     15  11  83 N3        30.29S
TRUTH OR CONSE CLEAR     27  19  72 N10       30.30R WCI  17
TUCUMCARI      CLEAR     15  12  88 W3        30.40F
$$

USA.gov is the U.S. government's official web portal to all federal, state and local government web resources and services.